Flag for U.S.A. Weather past 2 weeks in Salina, Kansas, U.S.A.

Now
81 °F

Clear.


Feels Like: 83 °F
Forecast: 72 / 92 °F
Wind: 17 mph from South

Location: Salina Municipal Airport

Current Time: Sep 2, 2015 at 1:52:40 AM

Latest Report: Sep 2, 2015 at 12:53 AM


Visibility: 10 mi

Pressure: 29.89 "Hg

Humidity: 60%

Dew point: 66 °F

Location of SalinaLocation

Historic Weather in Salina — Graph

°F

Salina temperature yesterday

Maximum temperature yesterday: 95 °F (at 2:53 PM)
Minimum temperature yesterday: 69 °F (at 6:53 AM)
Average temperature yesterday: 83 °F

Past Weeks' High & Low Weather Summary

 TemperatureHumidityPressure
High95 °F (Aug 31, 2:53 PM)96% (Aug 30, 6:53 AM)30.21 "Hg (Aug 30, 6:53 AM)
Low53 °F (Aug 20, 4:53 AM)25% (Aug 24, 3:53 PM)29.68 "Hg (Aug 18, 1:53 PM)
Average74 °F65%29.95 "Hg
* Reported Aug 18 12:53 AM — Sep 2 12:53 AM, Salina, Weather by CustomWeather, © 2015

Note: Actual official high and low records may vary slightly from our data, if they occured in-between our weather recording intervals... More about our weather records

Advertising

Salina weather history for previous 24 hours

 ConditionsComfort  
Time TempWeatherWind HumidityBarometerVisibility
12:53 AM
Wed, Sep 2
81 °FClear.17 mph60%29.89 "Hg10 mi
11:53 PM
Tue, Sep 1
82 °FClear.18 mph60%29.90 "Hg10 mi
10:53 PM83 °FClear.17 mph57%29.90 "Hg10 mi
9:53 PM83 °FClear.15 mph57%29.89 "Hg10 mi
8:53 PM85 °FSunny.16 mph50%29.87 "Hg10 mi
7:53 PM87 °FSunny.16 mph45%29.85 "Hg10 mi
6:53 PM91 °FSunny.17 mph38%29.85 "Hg10 mi
5:53 PM94 °FSunny.23 mph35%29.84 "Hg10 mi
3:53 PM95 °FSunny.23 mph35%29.86 "Hg10 mi
2:53 PM95 °FSunny.18 mph35%29.87 "Hg10 mi
1:53 PM94 °FSunny.18 mph36%29.88 "Hg10 mi
12:53 PM92 °FSunny.18 mph40%29.90 "Hg10 mi
11:53 AM91 °FSunny.17 mph41%29.91 "Hg10 mi
10:53 AM88 °FSunny.18 mph46%29.92 "Hg10 mi
9:53 AM81 °FSunny.17 mph56%29.93 "Hg10 mi
8:53 AM77 °FSunny.15 mph62%29.93 "Hg10 mi
7:53 AM72 °FClear.9 mph73%29.93 "Hg10 mi
6:53 AM69 °FClear.9 mph79%29.93 "Hg10 mi
5:53 AM70 °FClear.8 mph76%29.92 "Hg10 mi
4:53 AM74 °FClear.9 mph64%29.90 "Hg10 mi
3:53 AM74 °FClear.13 mph67%29.90 "Hg10 mi
2:53 AM76 °FClear.14 mph64%29.90 "Hg10 mi
1:53 AM78 °FClear.15 mph60%29.90 "Hg10 mi
Weather by CustomWeather, © 2015

See weather overviewHow to use our weather pages